Location: Bacea
(45.9500°N, 22.6667°E)
Time: 08:15:30
(UTC+00:00)

Cosmos 1300 - Pass Details

Date: 07 June 2022
Orbit: 506 x 508 km, 82.5° (Epoch: 06 July)

Event Time Altitude Azimuth Distance (km) Brightness Sun altitude
Rises 22:44:05 0° 336° (NNW) 2,621 7.3 -21.1°
Reaches altitude 10° 22:46:40 10° 318° (NW) 1,730 5.9 -21.1°
Maximum altitude 22:49:21 19° 272° (W) 1,266 4.6 -21.1°
Enters shadow 22:49:31 19° 269° (W) 1,268 4.6 -21.1°
